20050419,000018,377851,30.230607,-123.889520,16.263,33.278,0.216,0.306
20050419,000048,377881,30.231775,-123.890298,16.265,33.274,0.216,0.317
20050419,000118,377911,30.232913,-123.891073,16.264,33.280,0.216,0.295
20050419,000148,377941,30.234005,-123.891835,16.261,33.277,0.216,0.289
20050419,000218,377971,30.235150,-123.892593,16.267,33.272,0.216,0.289
20050419,000248,378001,30.236253,-123.893340,16.261,33.277,0.216,0.290
20050419,000318,378031,30.237360,-123.894093,16.261,33.278,0.216,0.292
20050419,000348,378061,30.238475,-123.894871,16.261,33.278,0.216,0.306
20050419,000419,378092,30.239587,-123.895625,16.260,33.278,0.216,0.304
20050419,000448,378121,30.240723,-123.896351,16.262,33.275,0.216,0.307
20050419,000519,378152,30.241813,-123.897120,16.265,33.273,0.216,0.367
20050419,000548,378181,30.242927,-123.897881,16.265,33.275,0.210,0.309
20050419,000618,378211,30.243980,-123.898603,16.263,33.275,0.216,0.389
20050419,000649,378242,30.245078,-123.899358,16.263,33.276,0.216,0.319
20050419,000718,378271,30.246245,-123.900148,16.267,33.273,0.222,0.320
20050419,000748,378301,30.247425,-123.900973,16.265,33.275,0.216,0.311
20050419,000819,378332,30.248533,-123.901693,16.265,33.275,0.216,0.315
20050419,000848,378361,30.249600,-123.902428,16.267,33.277,0.216,0.308
20050419,000918,378391,30.250723,-123.903191,16.263,33.279,0.216,0.304
20050419,000948,378421,30.251862,-123.903948,16.261,33.279,0.216,0.304
20050419,001018,378451,30.253008,-123.904725,16.262,33.280,0.216,0.308
20050419,001048,378481,30.254150,-123.905500,16.266,33.275,0.216,0.314
20050419,001118,378511,30.255312,-123.906283,16.264,33.276,0.216,0.334
20050419,001149,378542,30.256490,-123.907041,16.259,33.279,0.216,0.382
20050419,001219,378573,30.257638,-123.907811,16.257,33.282,0.216,0.345
20050419,001248,378601,30.258810,-123.908603,16.261,33.277,0.216,0.321
20050419,001318,378631,30.259940,-123.909353,16.258,33.280,0.216,0.363
20050419,001348,378661,30.261068,-123.910106,16.254,33.279,0.216,0.328
20050419,001418,378691,30.262193,-123.910878,16.253,33.280,0.222,0.326
20050419,001448,378721,30.263320,-123.911591,16.254,33.279,0.216,0.316
20050419,001518,378751,30.264410,-123.912311,16.254,33.276,0.216,0.328
20050419,001548,378781,30.265450,-123.913128,16.252,33.277,0.222,0.410
20050419,001618,378811,30.266570,-123.913805,16.252,33.276,0.222,0.343
20050419,001648,378841,30.267678,-123.914568,16.254,33.274,0.222,0.323
20050419,001718,378871,30.268828,-123.915313,16.253,33.272,0.216,0.329
20050419,001748,378901,30.269990,-123.916063,16.254,33.272,0.216,0.353
20050419,001819,378932,30.271150,-123.916830,16.254,33.273,0.222,0.330
20050419,001848,378961,30.272210,-123.917533,16.255,33.268,0.222,0.306
20050419,001918,378991,30.273298,-123.918263,16.251,33.273,0.216,0.299
20050419,001948,379021,30.274380,-123.918988,16.251,33.272,0.216,0.314
20050419,002019,379052,30.275507,-123.919711,16.252,33.271,0.216,0.414
20050419,002049,379082,30.276670,-123.920485,16.251,33.269,0.216,0.418
20050419,002119,379112,30.277843,-123.921223,16.251,33.268,0.222,0.388
20050419,002148,379141,30.278940,-123.921963,16.253,33.267,0.216,0.303
20050419,002218,379171,30.280087,-123.922653,16.247,33.271,0.216,0.329
20050419,002249,379202,30.281197,-123.923423,16.241,33.273,0.222,0.304
20050419,002318,379231,30.282375,-123.924156,16.245,33.271,0.216,0.295
20050419,002349,379262,30.283547,-123.924923,16.248,33.268,0.216,0.307
20050419,002419,379292,30.284773,-123.925705,16.254,33.263,0.216,0.393
20050419,002448,379321,30.285877,-123.926450,16.256,33.260,0.222,0.424
20050419,002518,379351,30.286998,-123.927178,16.259,33.259,0.222,0.436
20050419,002549,379382,30.288160,-123.927931,16.267,33.253,0.216,0.418
20050419,002619,379412,30.289352,-123.928710,16.274,33.249,0.216,0.364
20050419,002648,379441,30.290433,-123.929416,16.281,33.250,0.216,0.309
20050419,002718,379471,30.291583,-123.930138,16.292,33.245,0.222,0.333
20050419,002749,379502,30.292738,-123.930915,16.298,33.247,0.216,0.294
20050419,002818,379531,30.293825,-123.931573,16.307,33.246,0.216,0.297
20050419,002848,379561,30.294980,-123.932350,16.327,33.237,0.222,0.365
20050419,002919,379592,30.296087,-123.933090,16.337,33.240,0.216,0.399
20050419,002949,379622,30.297192,-123.933848,16.345,33.242,0.216,0.391
20050419,003019,379652,30.298323,-123.934553,16.346,33.252,0.216,0.390
20050419,003048,379681,30.299393,-123.935276,16.346,33.264,0.216,0.348
20050419,003119,379712,30.300560,-123.936015,16.345,33.272,0.216,0.400
20050419,003149,379742,30.301752,-123.936815,16.352,33.278,0.216,0.389
20050419,003219,379772,30.302917,-123.937553,16.352,33.284,0.222,0.322
20050419,003249,379802,30.304052,-123.938271,16.349,33.293,0.216,0.330
20050419,003319,379832,30.305223,-123.939050,16.349,33.297,0.216,0.375
20050419,003349,379862,30.306300,-123.939773,16.351,33.299,0.222,0.415
20050419,003419,379892,30.307468,-123.940536,16.356,33.298,0.216,0.413
20050419,003450,379923,30.308627,-123.941335,16.360,33.298,0.216,0.407
20050419,003519,379952,30.309733,-123.942080,16.364,33.300,0.216,0.412
20050419,003549,379982,30.310825,-123.942850,16.367,33.300,0.216,0.413
20050419,003620,380013,30.312038,-123.943635,16.371,33.300,0.222,0.398
20050419,003650,380043,30.313212,-123.944400,16.375,33.302,0.222,0.388
20050419,003720,380073,30.314308,-123.945125,16.381,33.300,0.216,0.378
20050419,003750,380103,30.315425,-123.945921,16.383,33.307,0.216,0.354
20050419,003820,380133,30.316518,-123.946620,16.380,33.314,0.222,0.398
20050419,003850,380163,30.317652,-123.947393,16.373,33.323,0.216,0.355
20050419,003921,380194,30.318798,-123.948118,16.369,33.335,0.216,0.299
20050419,003950,380223,30.319905,-123.948866,16.364,33.339,0.216,0.315
20050419,004020,380253,30.321067,-123.949621,16.356,33.344,0.216,0.324
20050419,004050,380283,30.322225,-123.950393,16.352,33.348,0.216,0.297
20050419,004120,380313,30.323415,-123.951136,16.347,33.348,0.216,0.341
20050419,004150,380343,30.324568,-123.951896,16.342,33.350,0.216,0.305
20050419,004221,380374,30.325698,-123.952625,16.351,33.340,0.216,0.294
20050419,004251,380404,30.326788,-123.953325,16.331,33.351,0.222,0.296
20050419,004320,380433,30.327945,-123.953983,16.324,33.353,0.216,0.292
20050419,004350,380463,30.329098,-123.954580,16.323,33.350,0.222,0.294
20050419,004421,380494,30.330308,-123.955186,16.324,33.342,0.222,0.290
20050419,004450,380523,30.331498,-123.955826,16.313,33.347,0.216,0.277
20050419,004520,380553,30.332735,-123.956453,16.310,33.343,0.222,0.282
20050419,004550,380583,30.333970,-123.957100,16.310,33.339,0.222,0.281
20050419,004620,380613,30.335160,-123.957755,16.300,33.339,0.216,0.278
20050419,004650,380643,30.336343,-123.958336,16.292,33.342,0.222,0.283
20050419,004720,380674,30.337537,-123.958966,16.295,33.333,0.222,0.282
20050419,004750,380703,30.338767,-123.959600,16.277,33.342,0.216,0.275
20050419,004820,380733,30.339995,-123.960233,16.267,33.344,0.222,0.284
20050419,004851,380764,30.341257,-123.960880,16.264,33.340,0.216,0.278
20050419,004920,380793,30.342397,-123.961478,16.255,33.342,0.216,0.281
20050419,004950,380823,30.343528,-123.962101,16.251,33.338,0.216,0.282
20050419,005020,380853,30.344705,-123.962678,16.240,33.337,0.222,0.289
20050419,005050,380883,30.345862,-123.963295,16.230,33.340,0.216,0.282
20050419,005120,380913,30.347043,-123.963896,16.225,33.334,0.222,0.290
20050419,005150,380943,30.348233,-123.964505,16.222,33.328,0.216,0.283
20050419,005221,380974,30.349445,-123.965151,16.207,33.332,0.222,0.292
20050419,005250,381003,30.350640,-123.965765,16.205,33.327,0.216,0.286
20050419,005320,381033,30.351853,-123.966396,16.192,33.327,0.222,0.296
20050419,005350,381063,30.353053,-123.966998,16.184,33.332,0.216,0.310
20050419,005421,381094,30.354273,-123.967600,16.178,33.323,0.216,0.327
20050419,005450,381123,30.355490,-123.968218,16.171,33.320,0.216,0.278
20050419,005520,381153,30.356703,-123.968825,16.159,33.319,0.216,0.276
20050419,005550,381183,30.357918,-123.969448,16.154,33.314,0.222,0.281
20050419,005620,381213,30.359067,-123.970033,16.145,33.312,0.216,0.273
20050419,005650,381243,30.360307,-123.970628,16.132,33.314,0.216,0.274
20050419,005720,381273,30.361553,-123.971216,16.122,33.313,0.222,0.282
20050419,005750,381303,30.362808,-123.971793,16.114,33.314,0.216,0.278
20050419,005820,381333,30.364068,-123.972345,16.103,33.311,0.216,0.273
20050419,005850,381363,30.365333,-123.972890,16.094,33.312,0.222,0.279
20050419,005920,381393,30.366597,-123.973435,16.085,33.309,0.222,0.278
20050419,005950,381423,30.367828,-123.974006,16.064,33.317,0.222,0.279
20050419,010020,381453,30.369035,-123.974563,16.056,33.313,0.216,0.274
20050419,010050,381483,30.370170,-123.975246,16.052,33.304,0.216,0.281
20050419,010120,381513,30.371193,-123.976088,16.038,33.310,0.216,0.299
20050419,010150,381543,30.372257,-123.976868,16.040,33.294,0.222,0.324
20050419,010220,381573,30.373393,-123.977735,16.050,33.277,0.222,0.319
20050419,010250,381603,30.374510,-123.978641,16.067,33.253,0.216,0.285
20050419,010321,381634,30.375598,-123.979510,16.084,33.237,0.222,0.308
20050419,010350,381663,30.376700,-123.980356,16.098,33.224,0.222,0.313
20050419,010420,381693,30.377803,-123.981250,16.106,33.219,0.222,0.300
20050419,010450,381723,30.378898,-123.982075,16.110,33.222,0.216,0.284
20050419,010520,381753,30.380025,-123.982656,16.107,33.233,0.222,0.291
20050419,010550,381783,30.381197,-123.983151,16.105,33.242,0.222,0.327
20050419,010620,381813,30.382408,-123.983725,16.110,33.245,0.216,0.350
20050419,010650,381843,30.383702,-123.984295,16.100,33.259,0.216,0.358
20050419,010720,381873,30.384960,-123.984891,16.092,33.268,0.216,0.368
20050419,010750,381903,30.386185,-123.985446,16.093,33.270,0.222,0.374
20050419,010820,381933,30.387400,-123.986011,16.094,33.272,0.216,0.337
20050419,010850,381963,30.388643,-123.986610,16.089,33.272,0.222,0.303
20050419,010920,381993,30.389865,-123.987206,16.092,33.271,0.222,0.345
20050419,010951,382024,30.391057,-123.987796,16.096,33.266,0.222,0.376
20050419,011020,382053,30.392305,-123.988386,16.112,33.253,0.216,0.366
20050419,011050,382083,30.393548,-123.988978,16.138,33.231,0.222,0.374
20050419,011121,382114,30.394765,-123.989543,16.151,33.224,0.222,0.376
20050419,011150,382143,30.395983,-123.990133,16.169,33.218,0.216,0.359
20050419,011220,382173,30.397213,-123.990713,16.164,33.234,0.222,0.372
20050419,011251,382204,30.398342,-123.991333,16.159,33.249,0.222,0.370
20050419,011321,382234,30.399560,-123.991870,16.140,33.274,0.222,0.362
20050419,011350,382263,30.400747,-123.992456,16.127,33.291,0.222,0.342
20050419,011420,382293,30.401942,-123.992991,16.112,33.309,0.216,0.301
20050419,011450,382323,30.403197,-123.993073,16.103,33.316,0.222,0.283
20050419,011520,382353,30.404365,-123.992960,16.084,33.324,0.216,0.274
20050419,011550,382383,30.405570,-123.992815,16.072,33.325,0.216,0.277
20050419,011620,382413,30.406840,-123.992826,16.049,33.334,0.222,0.287
20050419,011650,382443,30.408142,-123.992883,16.044,33.325,0.222,0.285
20050419,011720,382473,30.409452,-123.993086,16.034,33.319,0.216,0.274
20050419,011750,382503,30.410618,-123.993495,16.020,33.314,0.222,0.282
20050419,011820,382533,30.411790,-123.994010,16.015,33.300,0.222,0.284
20050419,011850,382563,30.412785,-123.994941,16.002,33.294,0.222,0.312
20050419,011920,382593,30.413778,-123.995433,15.988,33.296,0.216,0.275
20050419,011950,382623,30.414487,-123.995690,15.988,33.283,0.222,0.276
20050419,012021,382654,30.414797,-123.995886,15.989,33.270,0.222,0.274
20050419,012050,382683,30.415042,-123.996070,15.982,33.267,0.222,0.273
20050419,012120,382713,30.415330,-123.996231,15.969,33.269,0.216,0.265
20050419,012150,382743,30.415635,-123.996353,15.973,33.259,0.216,0.264
20050419,012220,382773,30.415903,-123.996405,15.979,33.243,0.222,0.270
20050419,012250,382803,30.416055,-123.996456,15.978,33.239,0.222,0.270
20050419,012320,382833,30.416158,-123.996543,15.978,33.234,0.222,0.270
20050419,012351,382864,30.416328,-123.996636,15.975,33.233,0.216,0.262
20050419,012420,382893,30.416487,-123.996716,15.972,33.231,0.222,0.268
20050419,012450,382923,30.416637,-123.996711,15.972,33.227,0.222,0.269
20050419,012520,382953,30.416820,-123.996746,15.973,33.225,0.222,0.269
20050419,012550,382983,30.416943,-123.996791,15.973,33.220,0.222,0.268
20050419,012620,383013,30.416993,-123.996845,15.971,33.222,0.216,0.261
20050419,012650,383043,30.417020,-123.996888,15.969,33.219,0.222,0.269
20050419,012720,383073,30.417015,-123.996895,15.967,33.217,0.222,0.270
20050419,012750,383103,30.417048,-123.996881,15.967,33.212,0.222,0.271
20050419,012821,383134,30.417133,-123.996910,15.967,33.212,0.222,0.271
20050419,012850,383163,30.417233,-123.996981,15.966,33.210,0.222,0.272
20050419,012920,383193,30.417356,-123.997078,15.970,33.202,0.216,0.264
20050419,012950,383223,30.417510,-123.997133,15.969,33.200,0.222,0.271
20050419,013021,383254,30.417691,-123.997171,15.974,33.194,0.222,0.270
20050419,013050,383283,30.417888,-123.997246,15.969,33.192,0.216,0.262
20050419,013120,383313,30.418095,-123.997238,15.972,33.184,0.222,0.268
20050419,013150,383343,30.418305,-123.997263,15.970,33.174,0.222,0.268
20050419,013221,383374,30.418443,-123.997305,15.971,33.166,0.222,0.268
20050419,013250,383403,30.418598,-123.997320,15.972,33.163,0.216,0.261
20050419,013320,383433,30.418746,-123.997421,15.970,33.162,0.222,0.268
20050419,013350,383463,30.418920,-123.997405,15.968,33.163,0.222,0.268
20050419,013421,383494,30.419051,-123.997431,15.970,33.155,0.216,0.260
20050419,013450,383523,30.419210,-123.997448,15.968,33.156,0.222,0.266
20050419,013521,383554,30.419366,-123.997466,15.970,33.158,0.216,0.259
20050419,013550,383583,30.419540,-123.997520,15.969,33.160,0.222,0.266
20050419,013620,383613,30.419710,-123.997631,15.970,33.170,0.222,0.264
20050419,013650,383643,30.419903,-123.997645,15.970,33.170,0.222,0.264
20050419,013720,383673,30.420075,-123.997686,15.970,33.171,0.222,0.264
20050419,013750,383703,30.420231,-123.997683,15.969,33.177,0.222,0.263
20050419,013820,383733,30.420351,-123.997701,15.970,33.180,0.222,0.263
20050419,013850,383763,30.420395,-123.997765,15.970,33.180,0.222,0.263
20050419,013920,383793,30.420396,-123.997795,15.967,33.186,0.222,0.263
20050419,013950,383823,30.420348,-123.997878,15.970,33.183,0.222,0.262
20050419,014020,383853,30.420410,-123.997961,15.972,33.184,0.222,0.262
20050419,014050,383883,30.420500,-123.998015,15.968,33.188,0.222,0.262
20050419,014120,383913,30.420598,-123.998033,15.969,33.189,0.222,0.262
20050419,014151,383944,30.420721,-123.998011,15.968,33.192,0.216,0.255
20050419,014221,383974,30.420813,-123.998008,15.966,33.198,0.222,0.263
20050419,014250,384003,30.420905,-123.998018,15.966,33.197,0.216,0.256
20050419,014320,384033,30.420971,-123.998063,15.963,33.197,0.222,0.263
20050419,014351,384064,30.421011,-123.998095,15.968,33.195,0.216,0.257
20050419,014420,384093,30.421040,-123.998203,15.964,33.198,0.222,0.264
20050419,014450,384123,30.421081,-123.998268,15.963,33.197,0.222,0.264
20050419,014520,384153,30.421120,-123.998315,15.963,33.200,0.216,0.257
20050419,014550,384183,30.421140,-123.998328,15.963,33.197,0.222,0.263
20050419,014620,384213,30.421188,-123.998250,15.963,33.201,0.222,0.262
20050419,014650,384243,30.421256,-123.998248,15.970,33.191,0.216,0.255
20050419,014721,384274,30.421281,-123.998263,15.963,33.200,0.216,0.255
20050419,014751,384304,30.421286,-123.998295,15.963,33.202,0.222,0.262
20050419,014821,384334,30.421290,-123.998353,15.963,33.202,0.222,0.262
20050419,014851,384364,30.421308,-123.998433,15.963,33.202,0.216,0.254
20050419,014921,384394,30.421356,-123.998463,15.965,33.198,0.222,0.262
20050419,014951,384424,30.421426,-123.998475,15.960,33.202,0.222,0.261
20050419,015021,384454,30.421491,-123.998483,15.960,33.203,0.222,0.261
20050419,015051,384484,30.421563,-123.998526,15.963,33.200,0.216,0.254
20050419,015120,384513,30.421640,-123.998620,15.964,33.200,0.222,0.262
20050419,015150,384543,30.421730,-123.998645,15.960,33.205,0.222,0.262
20050419,015220,384573,30.421816,-123.998731,15.960,33.202,0.222,0.262
20050419,015250,384603,30.421913,-123.998776,15.964,33.203,0.222,0.263
20050419,015321,384635,30.422028,-123.998801,15.963,33.200,0.222,0.269
20050419,015351,384664,30.422125,-123.998781,15.962,33.202,0.222,0.294
20050419,015421,384694,30.422218,-123.998743,15.964,33.201,0.222,0.295
20050419,015450,384724,30.422281,-123.998741,15.960,33.203,0.222,0.297
20050419,015521,384754,30.422323,-123.998776,15.962,33.203,0.222,0.296
20050419,015551,384784,30.422360,-123.998866,15.962,33.202,0.222,0.296
20050419,015621,384814,30.422440,-123.998988,15.960,33.205,0.222,0.294
20050419,015650,384843,30.422508,-123.999068,15.960,33.203,0.222,0.283
20050419,015720,384873,30.422588,-123.999123,15.960,33.204,0.222,0.263
20050419,015751,384904,30.422656,-123.999098,15.958,33.205,0.216,0.253
20050419,015820,384933,30.422731,-123.999083,15.958,33.205,0.222,0.259
20050419,015851,384964,30.422813,-123.999041,15.962,33.204,0.216,0.253
20050419,015921,384994,30.422898,-123.999033,15.958,33.205,0.222,0.272
20050419,015951,385024,30.422941,-123.999101,15.956,33.206,0.222,0.264
20050419,020021,385054,30.422988,-123.999190,15.956,33.205,0.222,0.258
20050419,020051,385084,30.423015,-123.999315,15.963,33.202,0.222,0.257
20050419,020121,385114,30.423076,-123.999436,15.960,33.203,0.222,0.257
20050419,020151,385144,30.423143,-123.999481,15.964,33.199,0.222,0.257
20050419,020222,385175,30.423246,-123.999445,15.958,33.204,0.222,0.257
20050419,020251,385204,30.423363,-123.999408,15.963,33.203,0.222,0.257
20050419,020321,385234,30.423480,-123.999331,15.964,33.202,0.222,0.257
20050419,020351,385264,30.423603,-123.999280,15.962,33.202,0.222,0.257
20050419,020421,385294,30.423701,-123.999305,15.962,33.200,0.216,0.250
20050419,020451,385324,30.423763,-123.999300,15.958,33.205,0.222,0.256
20050419,020521,385354,30.423815,-123.999321,15.958,33.205,0.222,0.256
20050419,020551,385384,30.423876,-123.999366,15.962,33.204,0.229,0.263
20050419,020621,385414,30.423931,-123.999460,15.960,33.205,0.222,0.255
20050419,020651,385444,30.424006,-123.999498,15.960,33.203,0.229,0.262
20050419,020721,385474,30.424113,-123.999530,15.960,33.204,0.222,0.255
20050419,020751,385504,30.424211,-123.999608,15.960,33.202,0.222,0.255
20050419,020821,385534,30.424331,-123.999691,15.965,33.200,0.222,0.254
20050419,020851,385564,30.424448,-123.999761,15.964,33.202,0.222,0.254
20050419,020921,385594,30.424556,-123.999818,15.963,33.202,0.222,0.254
20050419,020951,385624,30.424638,-123.999840,15.964,33.203,0.222,0.254
20050419,021021,385654,30.424751,-123.999825,15.971,33.201,0.222,0.253
20050419,021051,385684,30.424835,-123.999915,15.966,33.203,0.222,0.253
20050419,021121,385714,30.424966,-123.999958,15.963,33.204,0.216,0.246
20050419,021151,385744,30.425075,-124.000033,15.967,33.201,0.222,0.253
20050419,021222,385775,30.425180,-124.000085,15.970,33.200,0.222,0.253
20050419,021251,385804,30.425271,-124.000168,15.975,33.196,0.222,0.253
20050419,021322,385835,30.425373,-124.000173,15.976,33.200,0.222,0.253
20050419,021351,385864,30.425466,-124.000173,15.975,33.199,0.222,0.253
20050419,021422,385896,30.425575,-124.000160,15.973,33.202,0.222,0.253
20050419,021451,385924,30.425691,-124.000217,15.970,33.203,0.229,0.260
20050419,021521,385954,30.425818,-124.000295,15.965,33.209,0.222,0.254
20050419,021551,385985,30.425913,-124.000388,15.963,33.210,0.222,0.253
20050419,021621,386014,30.426015,-124.000463,15.969,33.206,0.222,0.253
20050419,021651,386044,30.426098,-124.000547,15.964,33.207,0.222,0.253
20050419,021721,386074,30.426201,-124.000565,15.964,33.207,0.222,0.253
20050419,021751,386104,30.426301,-124.000570,15.960,33.205,0.222,0.252
20050419,021821,386134,30.426440,-124.000543,15.964,33.209,0.229,0.259
20050419,021851,386164,30.426535,-124.000592,15.959,33.207,0.222,0.252
20050419,021921,386194,30.426626,-124.000640,15.960,33.209,0.222,0.252
20050419,021951,386224,30.426713,-124.000688,15.966,33.207,0.222,0.252
20050419,022021,386254,30.426791,-124.000738,15.962,33.205,0.222,0.252
20050419,022052,386285,30.426855,-124.000827,15.965,33.203,0.229,0.258
20050419,022122,386315,30.426936,-124.000882,15.960,33.205,0.222,0.252
20050419,022151,386344,30.427045,-124.000963,15.965,33.200,0.222,0.251
20050419,022221,386374,30.427191,-124.000967,15.964,33.202,0.216,0.245
20050419,022251,386404,30.427323,-124.000997,15.963,33.204,0.222,0.251
20050419,022321,386434,30.427433,-124.001035,15.963,33.203,0.229,0.258
20050419,022352,386465,30.427561,-124.001108,15.965,33.203,0.229,0.258
20050419,022422,386495,30.427691,-124.001190,15.973,33.197,0.216,0.244
20050419,022451,386524,30.427831,-124.001257,15.963,33.206,0.229,0.258
20050419,022521,386554,30.427961,-124.001337,15.965,33.206,0.222,0.251
20050419,022551,386584,30.428065,-124.001408,15.968,33.202,0.222,0.251
20050419,022621,386614,30.428200,-124.001457,15.968,33.201,0.229,0.257
20050419,022652,386645,30.428335,-124.001530,15.966,33.206,0.222,0.251
20050419,022721,386674,30.428465,-124.001540,15.968,33.209,0.222,0.250
20050419,022751,386704,30.428578,-124.001597,15.966,33.207,0.229,0.257
20050419,022821,386734,30.428683,-124.001672,15.965,33.209,0.222,0.250
20050419,022851,386764,30.428798,-124.001770,15.963,33.209,0.222,0.250
20050419,022922,386795,30.428903,-124.001812,15.964,33.208,0.222,0.250
20050419,022951,386824,30.429015,-124.001872,15.963,33.208,0.229,0.257
20050419,023021,386854,30.429155,-124.001885,15.963,33.207,0.222,0.250
20050419,023051,386884,30.429298,-124.001878,15.966,33.206,0.229,0.257
20050419,023122,386915,30.429433,-124.001880,15.968,33.203,0.222,0.250
20050419,023151,386944,30.429570,-124.001945,15.966,33.208,0.222,0.250
20050419,023221,386974,30.429765,-124.002007,15.963,33.211,0.222,0.250
20050419,023251,387004,30.429955,-124.002255,15.964,33.209,0.222,0.250
20050419,023322,387035,30.430210,-124.002465,15.967,33.205,0.222,0.250
20050419,023352,387065,30.430493,-124.002730,15.964,33.207,0.222,0.250
20050419,023422,387095,30.430776,-124.003045,15.966,33.206,0.222,0.250
20050419,023451,387124,30.431108,-124.003387,15.972,33.203,0.229,0.256
20050419,023521,387154,30.431416,-124.003732,15.966,33.207,0.229,0.256
20050419,023551,387184,30.431728,-124.004022,15.965,33.207,0.222,0.249
20050419,023621,387214,30.431991,-124.004302,15.968,33.206,0.222,0.249
20050419,023651,387244,30.432238,-124.004565,15.968,33.204,0.229,0.256
20050419,023721,387274,30.432533,-124.004863,15.963,33.211,0.229,0.256
20050419,023751,387304,30.432791,-124.005133,15.966,33.208,0.222,0.249
20050419,023821,387335,30.433055,-124.005435,15.966,33.207,0.222,0.249
20050419,023851,387364,30.433325,-124.005690,15.973,33.204,0.229,0.256
20050419,023921,387394,30.433555,-124.005975,15.970,33.204,0.229,0.256
20050419,023951,387424,30.433795,-124.006235,15.972,33.204,0.222,0.249
20050419,024022,387455,30.434061,-124.006470,15.972,33.206,0.216,0.242
20050419,024052,387485,30.434308,-124.006728,15.970,33.207,0.222,0.249
20050419,024121,387514,30.434565,-124.006982,15.975,33.204,0.222,0.249
20050419,024151,387544,30.434776,-124.007283,15.973,33.205,0.229,0.256
20050419,024221,387574,30.435095,-124.007625,15.978,33.202,0.229,0.255
20050419,024251,387604,30.435410,-124.007983,15.975,33.207,0.222,0.249
20050419,024321,387634,30.435696,-124.008253,15.975,33.209,0.222,0.249
20050419,024352,387665,30.435901,-124.008505,15.979,33.205,0.222,0.249
20050419,024421,387694,30.436125,-124.008723,15.981,33.207,0.222,0.249
20050419,024452,387725,30.436285,-124.008973,15.980,33.208,0.222,0.249
20050419,024521,387754,30.436408,-124.009152,15.979,33.210,0.222,0.249
20050419,024551,387784,30.436486,-124.009307,15.982,33.208,0.222,0.248
20050419,024621,387814,30.436575,-124.009508,15.980,33.212,0.222,0.248